Lexington Weather

Lexington, Massachusetts, USA

29°F
4/1/2020 5:19am 
  • Lexington Conditions: Clear
  • Temperature: 29.3°F / -1.5°CWarmer 0.2°F than last hour.
  • Dew Point: 27.5°FIncreased 0.4°Fsince last hour.
  • Relative Humidity: 93%Increased 1.0% since last hour.
  • Wind: Wind from NNE NNE 1 mph, 10-min avg: 2 mph, gust: 3 mph
  • Barometer: 29.85 inFalling 0.03  inHg/hr Falling Slowly
  • Visibility: 10 miles
  • Snow Today: 0.0 in
  •   

Regional Weather Roundup
for Boston / Norton, MA

        
000
ASUS41 KBOX 302105
RWRBOX

REGIONAL WEATHER ROUNDUP
NATIONAL WEATHER SERVICE BOSTON/NORTON MA
500 PM EDT MON MAR 30 2020

NOTE:  "FAIR" INDICATES FEW OR NO CLOUDS BELOW 12,000 FEET WITH NO 
SIGNIFICANT WEATHER AND/OR OBSTRUCTIONS TO VISIBILITY.

MAZALL-302200-
EASTERN MASSACHUSETTS
  
CITY           SKY/WX    TMP DP  RH WIND       PRES   REMARKS
BOSTON         CLOUDY    40  38  93 NE17      29.96F FOG     WCI  31  
BEVERLY        CLOUDY    40  37  89 N13       29.98R FOG              
LAWRENCE       CLOUDY    39  37  92 NE16      29.98F WCI  30          
BEDFORD        LGT RAIN  41  36  82 NE10      29.96S                  
BLUE HILL        N/A     37  37 100 NE13G24   29.92S WCI  29          
NORWOOD        CLOUDY    42  37  82 NE10      29.96R FOG              
MARSHFIELD     CLOUDY    41  41 100 NE9G20    29.95R FOG              
PLYMOUTH       LGT RAIN  40  38  93 N14         N/A  FOG              
TAUNTON        CLOUDY    41  37  86 N10       29.94R                  
NEW BEDFORD    CLOUDY    41  39  93 N12G17    29.92R                  
$$

MAZALL-302200-
CAPE COD AND THE ISLANDS
  
CITY           SKY/WX    TMP DP  RH WIND       PRES   REMARKS
FALMOUTH       NOT AVBL                                               
HYANNIS        CLOUDY    43  38  82 N16G29    29.89R                  
CHATHAM        CLOUDY    41  37  86 NE10G23   29.90R                  
PROVINCETOWN   CLOUDY    41  38  89 NE14G24   29.95R                  
NANTUCKET      CLOUDY    43  38  82 N23G30    29.88R                  
MARTHAS VNYRD  CLOUDY    43  39  86 N16G25    29.89S                  
$$
 
MAZALL-302200-
CENTRAL AND WESTERN MASSACHUSETTS
  
CITY           SKY/WX    TMP DP  RH WIND       PRES   REMARKS
WORCESTER      LGT RAIN  37  34  89 NE6       29.93S FOG              
FITCHBURG      LGT RAIN  39  35  86 NE7       29.97R                  
ORANGE         LGT RAIN  41  38  89 E3        29.94F                  
SPRINGFIELD    LGT RAIN  41  38  87 E5        29.92F                  
WESTFIELD      LGT RAIN  42  37  82 N5        29.94S                  
NORTH ADAMS    LGT RAIN  39  35  86 E8        29.93R                  
PITTSFIELD     LGT RAIN  40  36  86 NE5       29.89S                  
$$
 
RIZALL-302200-
RHODE ISLAND
  
CITY           SKY/WX    TMP DP  RH WIND       PRES   REMARKS
PROVIDENCE     CLOUDY    43  37  79 N15       29.95R                  
NEWPORT        CLOUDY    44  37  76 N12       29.92R                  
BLOCK ISLAND   CLOUDY    43  38  82 N9        29.93R                  
SMITHFIELD     LGT RAIN  40  39  97 NE7       29.96R                  
WESTERLY       CLOUDY    48  37  65 N9        29.95R                  
$$
 
CTZALL-302200-
CONNECTICUT
  
CITY           SKY/WX    TMP DP  RH WIND       PRES   REMARKS
BRADLEY INTL   CLOUDY    43  37  79 N8        29.93S                  
HARTFORD       CLOUDY    46  38  73 N7        29.93S                  
BRIDGEPORT     CLOUDY    46  38  73 SW7       29.91F                  
DANBURY        CLOUDY    47  39  74 E5        29.90F                  
GROTON         CLOUDY    45  39  79 NE13      29.91F                  
NEW HAVEN      CLOUDY    46  40  79 S5        29.91S                  
CHESTER        CLOUDY    46  39  76 NE8       29.90F                  
MERIDEN        CLOUDY    46  38  73 N5        29.92R                  
WILLIMANTIC    CLOUDY    44  37  76 NE10      29.93F                  
OXFORD         CLOUDY    44  38  79 VRB7      29.91R                  
$$

MEZ002-015-021-024-NHZ003-005-008-011-012-014-VTZ005-008-302200-
NORTHERN NEW ENGLAND
  
CITY           SKY/WX    TMP DP  RH WIND       PRES   REMARKS
PORTLAND ME    LGT RAIN  38  34  85 NE10      30.04R WCI  31          
BANGOR ME      LGT SNOW  34  31  88 NE8       30.07S FOG     WCI  27  
CONCORD NH     CLOUDY    39  34  82 E6        29.98S                  
MANCHESTER NH  LGT RAIN  40  36  86 NE8       29.97R                  
NASHUA NH      LGT RAIN  39  39 100 VRB7      29.99R                  
PORTSMOUTH NH  LGT RAIN  38  36  94 NE10      29.99R FOG     WCI  31  
JAFFREY NH     RAIN      37  36  96 CALM      29.94R                  
KEENE NH       LGT RAIN  38  36  92 N6        29.95S                  
BURLINGTON VT  LGT RAIN  42  38  85 SE9       29.91R                  
MT. WASHINGTON FLURRIES  27  26  96 NE9         N/A  WCI  18          
$$

NYZ052-076-302200-
EASTERN NEW YORK
  
CITY           SKY/WX    TMP DP  RH WIND       PRES   REMARKS
ALBANY         LGT RAIN  47  40  76 SE7       29.91R                  
NEW YORK CITY  CLOUDY    47  40  76 NE8       29.90S                  
$$
 
ANZALL-302200-
MARINE OBSERVATIONS
  
STATION/POSITION TIME  TEMP    WIND        PRES    VSBY  WAVE
                       AIR SEA DIR/SP/G                  HT/PER
                 (UTC) (F)     (DEG/KT/KT) (MB)    (MI)  (FT/S)
BOSTON BUOY      2050   40 43   40/ 17/ 19 1013.8R         9/ 9
BUZZARDS BAY     2000           20/ 20/ 22 1013.0R
NANTUCKET SOUND  2040                        N/A           3/ 3
MASS BAY-STELLWA 2004   39 42   70/ 16/ 19 1012.5R  1 7/8 11/11
ISLE OF SHOALS   2000   38      50/ 20/ 22 1014.7R
S OF BLOCK IS    2030      44                N/A           4/ 8
$$

......................KEY.........................
  SKY/WX - SKY CONDITION/PRESENT WEATHER
  TMP    - TEMPERATURE IN FAHRENHEIT
  DWPT   - DEWPOINT IN FAHRENHEIT
  RH     - RELATIVE HUMIDITY IN PERCENT
  WIND   - DIRECTION AND SPEED IN MPH
  PRES   - MEAN SEA LEVEL PRESSURE IN INCHES OF HG
  WCI    - WIND CHILL INDEX
  VSB    - VISIBILITY IN MILES
  HX     - HEAT INDEX
  TC     - TEMPERATURE IN CELSIUS
  VRB    - VARIABLE WIND DIRECTION
  N/A    - NOT AVAILABLE
  
      

Other recent Regional Weather Roundups

Wed Apr 1, 5:04am

Wed Apr 1, 4:05am

Wed Apr 1, 3:04am

Wed Apr 1, 2:04am

Wed Apr 1, 1:04am

Wed Apr 1, 12:04am

Tue Mar 31, 11:04pm

Tue Mar 31, 10:04pm

Tue Mar 31, 9:04pm

Tue Mar 31, 8:04pm

Tue Mar 31, 7:04pm

Tue Mar 31, 6:04pm

Tue Mar 31, 4:04pm

Tue Mar 31, 3:04pm

Tue Mar 31, 2:04pm

Tue Mar 31, 1:04pm

Tue Mar 31, 12:05pm

Tue Mar 31, 11:04am

Tue Mar 31, 10:05am

Tue Mar 31, 9:04am

Tue Mar 31, 8:04am

Tue Mar 31, 7:05am

Tue Mar 31, 6:04am

Tue Mar 31, 5:04am

Tue Mar 31, 4:04am

Tue Mar 31, 3:04am

Tue Mar 31, 2:04am

Tue Mar 31, 1:04am

Tue Mar 31, 12:04am

Mon Mar 30, 11:04pm

Mon Mar 30, 10:04pm

Mon Mar 30, 9:05pm

Mon Mar 30, 8:04pm

Mon Mar 30, 7:04pm

Mon Mar 30, 6:04pm

Mon Mar 30, 4:04pm

Mon Mar 30, 3:04pm

Mon Mar 30, 2:04pm

Mon Mar 30, 1:04pm

Mon Mar 30, 12:04pm

Mon Mar 30, 11:04am

Mon Mar 30, 10:04am

Mon Mar 30, 9:04am

Mon Mar 30, 8:04am

Mon Mar 30, 7:04am

Mon Mar 30, 6:04am

Mon Mar 30, 5:04am

Mon Mar 30, 4:04am

Mon Mar 30, 3:05am

Mon Mar 30, 2:04am

Mon Mar 30, 1:04am

Mon Mar 30, 12:04am

Sun Mar 29, 11:04pm

Sun Mar 29, 10:05pm

Sun Mar 29, 9:04pm

Sun Mar 29, 8:04pm

Sun Mar 29, 7:04pm

Sun Mar 29, 6:04pm

Sun Mar 29, 5:05pm

Sun Mar 29, 4:04pm

Sun Mar 29, 3:04pm

Sun Mar 29, 2:04pm

Sun Mar 29, 1:05pm

Sun Mar 29, 12:04pm

Sun Mar 29, 11:04am

Sun Mar 29, 10:04am

Sun Mar 29, 9:04am

Sun Mar 29, 8:04am

Sun Mar 29, 7:04am

Sun Mar 29, 6:04am

Meta data:

ID: e73b567d-5b7e-409f-90cf-47745fca5fcd
Link: https://api.weather.gov/products/e73b567d-5b7e-409f-90cf-47745fca5fcd